RH
56 81 71 73 61 47 65 94 100 97 82 70 67 59 56 48 47 50 44 38 28 26 28 23 30 28 23 20 23 22 33 26 20 17 23 16 21 18 18 20 19 29 39 46 72
62 69 74 72 71 77 87 82 96 100 96 80 68 63 58 53 50 45 38 40 34 24 24 33 36 28 23 22 22 26 28 20 14 11 23 18 19 20 17 18 27 35 49 63 76
76 73 72 81 56 84 84 84 81 96 100 91 71 65 60 56 78 40 37 37 38 28 27 31 30 24 21 19 21 19 28 17 11 15 16 19 19 20 17 23 24 45 68 73 78
66 76 72 74 64 72 80 72 71 72 96 98 82 65 62 67 62 49 42 35 38 32 32 36 26 23 24 28 19 18 13 13 12 16 16 22 18 18 16 19 18 30 63 74 78
71 77 68 62 65 66 72 88 64 82 72 100 92 68 67 90 70 48 36 37 46 33 34 34 25 23 26 21 18 22 16 12 16 17 18 19 20 18 18 16 17 34 59 63 78
74 71 66 67 64 62 51 60 90 74 78 96 98 80 72 82 54 48 40 35 44 35 35 35 25 21 17 16 21 18 17 14 20 18 18 21 20 16 17 17 17 34 52 64 64
78 77 70 59 57 54 53 58 69 83 65 69 100 89 92 72 58 46 57 34 42 37 41 32 20 20 17 22 13 16 22 21 22 19 20 18 21 22 17 17 18 20 40 57 69
81 74 67 65 55 54 52 47 49 74 76 71 100 99 88 56 57 64 82 76 66 50 43 36 28 24 19 18 18 19 23 34 26 25 23 22 29 23 19 20 18 20 27 40 54
78 74 59 61 51 43 42 46 47 55 74 78 98 97 75 52 63 56 72 65 59 48 44 36 30 28 24 34 31 26 32 27 32 25 29 28 23 25 22 19 17 18 24 33 41
81 74 60 48 39 31 34 35 46 59 73 82 94 99 70 56 54 52 54 58 54 48 44 38 34 35 38 42 48 32 21 21 35 30 28 32 28 28 25 23 18 18 21 35 42
81 75 54 35 45 64 58 68 55 76 72 95 100 91 50 48 52 53 57 53 44 45 51 39 46 42 33 32 27 22 18 21 22 27 30 33 27 32 27 25 22 18 21 22 43
78 70 58 48 48 54 83 93 96 89 97 62 89 99 80 52 54 59 55 51 47 54 42 50 51 33 29 27 28 28 27 22 38 27 29 32 30 30 31 29 25 23 23 26 29
59 53 54 58 62 81 95 88 73 86 94 87 80 98 85 51 43 53 53 44 49 52 45 50 40 31 30 33 27 31 35 28 41 34 30 32 34 31 31 27 30 29 29 31 34
67 60 54 48 87 84 93 88 78 97 100 75 90 84 92 60 50 48 49 38 46 52 44 44 36 36 35 34 27 38 26 29 44 45 52 35 57 36 37 38 40 40 40 41 44
70 68 71 78 80 86 86 85 95 99 95 62 86 90 78 66 40 47 43 39 44 41 46 50 42 43 40 34 30 36 27 39 41 46 43 37 55 24 31 43 43 42 44 46 52
69 70 86 80 89 88 91 72 93 96 93 97 83 85 78 71 49 47 48 43 33 37 40 42 34 37 34 32 31 30 39 39 41 56 78 44 47 38 35 34 36 38 42 50 58
47 62 78 92 94 96 89 98 100 89 58 93 83 89 84 83 61 50 55 56 50 55 54 45 41 39 35 39 34 37 43 83 79 84 81 36 42 32 26 30 32 38 48 56 66
36 62 98 99 94 99 89 85 99 68 63 74 81 76 98 79 57 54 57 61 42 38 52 66 71 47 36 36 44 43 40 85 76 86 62 36 49 35 43 39 32 40 51 60 71
55 90 91 99 98 92 95 88 81 66 76 79 70 89 100 84 61 63 56 54 43 34 53 53 52 39 36 32 36 48 50 35 42 31 56 52 33 46 47 44 47 53 58 66 73
85 85 90 74 87 94 98 78 64 44 58 63 80 82 96 96 96 81 57 45 44 33 28 35 66 44 44 40 37 38 32 44 50 55 52 44 35 43 58 57 55 61 65 67 76
86 79 94 80 88 99 97 83 72 53 49 67 70 76 72 96 99 98 71 40 38 37 32 30 45 60 51 56 45 46 43 37 44 66 66 45 44 30 37 46 56 60 63 70 78
89 86 83 81 91 99 94 64 63 67 54 87 85 73 83 81 93 100 64 42 32 32 40 31 35 71 58 43 33 35 36 34 44 46 50 52 30 46 47 44 50 58 61 69 74
92 83 85 91 89 89 69 61 53 55 57 74 74 67 60 82 96 87 80 39 30 31 34 31 42 73 63 50 48 45 34 31 28 33 36 44 34 48 50 53 50 58 65 68 70
95 96 76 87 91 89 86 68 68 61 61 57 65 59 86 98 93 87 82 49 36 29 29 30 36 43 64 48 47 52 42 34 34 44 35 31 24 59 60 58 57 60 64 65 66
92 90 99 97 84 92 91 92 95 85 78 67 66 76 83 88 94 87 86 76 45 43 43 37 43 36 35 31 37 40 45 40 43 32 34 25 26 22 58 56 56 62 63 62 62
92 98 93 95 90 98 80 97 94 85 91 81 84 76 77 91 97 87 96 71 62 52 66 41 74 42 46 30 33 43 41 40 38 32 28 25 23 23 44 52 56 61 61 60 60
97 98 95 77 88 88 86 83 93 85 75 67 74 83 88 80 68 92 97 95 72 66 62 68 80 75 54 43 55 67 43 41 39 34 30 37 36 45 56 56 55 59 58 59 59
Wind_Speed
18 17 17 16 17 22 22 23 12 14 16 16 15 13 12 12 15 19 23 16 21 10 16 15 15 12 11 11 8 3 3 5 9 3 7 19 6 4 9 17 8 4 11 21 27
18 17 16 16 14 15 19 22 20 11 13 16 15 14 12 10 12 22 27 17 15 20 19 20 18 15 9 12 8 5 2 5 7 5 9 17 16 11 6 15 12 11 19 28 27
16 16 15 16 14 15 18 19 26 15 12 13 15 13 11 6 7 21 21 24 18 18 15 18 14 16 15 12 9 6 5 10 4 10 10 16 10 15 10 7 16 21 28 25 27
14 15 15 13 15 16 18 20 21 25 13 14 14 13 10 7 7 8 12 18 25 20 20 20 18 16 7 8 14 4 14 5 4 3 2 10 14 10 10 6 14 23 27 28 28
13 13 14 14 15 14 15 19 16 22 21 12 12 12 10 10 16 13 2 11 26 24 25 24 23 20 8 13 12 8 5 10 6 3 4 13 9 8 11 12 15 22 26 25 28
13 13 13 13 14 16 16 19 17 20 18 15 14 14 15 15 10 17 20 6 26 29 29 24 15 26 6 12 12 13 14 7 9 8 2 3 5 7 12 14 11 21 24 19 23
10 12 14 13 16 18 20 19 22 17 28 25 16 16 17 21 7 8 8 10 23 29 26 28 9 21 9 7 15 12 6 6 7 13 5 8 3 6 16 13 14 16 21 20 18
12 12 17 15 15 17 19 21 24 27 25 27 13 15 13 15 20 10 7 15 17 24 16 19 17 16 16 4 5 5 6 6 9 12 5 6 6 11 15 15 15 18 19 20 21
12 11 13 14 15 17 19 21 22 24 23 27 24 17 11 17 21 23 13 15 18 19 16 14 14 8 8 5 4 8 6 9 7 13 6 6 6 8 17 15 17 20 19 19 19
13 13 14 15 16 17 20 27 17 18 19 19 29 16 13 19 18 20 23 14 16 19 10 9 9 5 5 7 10 7 7 9 9 9 6 9 3 5 9 12 14 18 18 18 20
14 14 16 15 15 16 20 19 12 8 22 10 11 11 2 28 19 22 25 21 15 19 9 17 6 16 13 13 10 8 9 10 8 10 9 10 8 9 9 9 13 18 20 18 20
16 15 16 15 15 14 10 6 6 7 13 27 30 21 20 29 14 22 32 17 15 10 10 6 15 10 9 10 12 11 8 11 7 9 6 9 9 9 11 9 12 14 18 20 19
17 15 15 14 14 9 4 7 14 12 6 13 24 12 12 19 14 31 36 17 14 13 19 9 8 12 14 10 16 9 8 8 7 6 3 2 8 6 8 10 10 12 12 19 16
17 16 15 15 7 12 7 6 12 12 4 5 7 12 22 10 8 30 39 25 9 17 15 10 14 19 14 15 11 10 6 1 14 7 4 8 4 10 11 9 9 15 16 18 20
18 16 16 13 12 6 7 8 11 4 4 10 10 9 18 16 17 21 38 27 17 12 11 9 14 11 17 13 10 5 6 7 6 8 3 3 2 4 15 8 9 18 22 20 16
19 19 18 10 10 10 9 10 6 2 5 6 7 8 14 21 8 29 24 22 9 9 16 8 1 9 12 8 9 5 8 6 3 4 0 7 7 5 11 14 17 17 23 21 20
22 21 18 11 9 8 10 4 4 3 1 7 8 5 16 18 14 12 18 18 11 15 17 6 4 3 1 7 6 9 8 2 1 0 5 2 6 6 4 3 6 20 28 23 19
24 16 11 9 8 6 3 2 4 4 4 1 2 12 10 18 22 13 20 17 16 9 12 10 5 8 4 13 9 12 12 5 6 5 5 2 5 5 3 6 15 28 29 23 19
23 14 6 4 5 4 2 2 3 7 3 6 9 7 3 14 13 16 17 23 17 12 8 12 6 11 11 2 12 8 13 4 4 2 4 5 4 1 4 4 13 22 28 25 22
20 14 3 8 5 5 1 5 2 5 3 4 4 4 6 15 10 15 18 17 21 16 14 8 5 5 4 2 3 6 6 7 1 7 5 4 7 6 6 10 9 13 22 26 24
13 7 4 9 7 0 2 5 12 16 14 3 4 4 6 5 9 10 13 16 24 21 16 5 5 6 7 9 13 3 7 4 6 5 6 3 5 3 15 17 19 15 23 26 25
10 3 12 11 2 2 3 11 11 11 15 3 6 9 6 3 6 6 18 21 31 21 21 14 2 6 9 3 2 8 10 10 9 7 3 5 8 3 2 11 22 24 27 28 26
13 4 8 8 4 4 9 12 13 12 11 3 7 8 5 3 3 8 13 17 30 23 21 12 5 5 5 1 2 11 14 17 6 4 10 7 4 1 3 9 20 26 28 30 28
5 3 4 4 4 5 10 8 11 15 13 11 12 11 7 5 5 7 8 7 11 24 29 17 5 7 11 9 7 5 11 7 11 3 4 8 5 5 7 12 18 26 30 31 31
8 3 2 4 6 11 10 5 9 8 8 12 5 8 10 7 7 11 17 17 6 3 14 9 15 9 10 8 12 13 14 16 11 21 11 12 11 7 16 17 22 28 31 32 33
6 5 5 9 9 6 11 4 12 6 3 8 11 18 18 14 11 14 8 8 6 9 1 5 2 8 8 10 13 16 20 17 18 20 19 8 6 3 14 24 26 31 32 32 33
17 16 6 6 2 5 4 9 19 17 8 9 21 19 20 18 20 20 18 25 13 9 13 11 4 3 13 2 6 3 21 20 17 17 16 13 7 7 12 16 28 33 36 35 36
Wind_Direction
296 305 310 305 289 278 289 280 257 264 269 268 268 260 263 256 262 251 234 219 228 217 200 201 188 190 188 209 201 189 307 224 246 188 121 143 119 130 92 127 124 90 88 157 159
296 294 300 303 297 293 294 288 278 256 261 267 266 265 260 269 266 260 246 222 215 211 198 188 186 180 193 207 206 186 216 243 220 220 145 161 146 146 142 136 115 102 119 147 155
287 294 292 303 298 292 297 295 284 275 251 258 264 261 263 272 279 263 253 232 217 210 206 194 184 185 224 192 205 206 201 255 13 51 120 165 170 156 162 160 168 148 145 155 159
282 291 287 299 307 296 298 302 284 286 286 247 256 257 250 199 224 178 213 223 213 201 184 188 194 193 217 205 207 244 215 275 20 55 66 161 158 154 205 118 157 173 166 162 167
289 298 290 293 304 312 303 310 292 289 270 253 244 245 234 226 235 275 220 218 199 192 187 192 198 195 222 195 226 222 227 202 99 131 289 167 169 174 142 141 132 161 168 175 174
292 301 298 299 303 308 308 312 317 276 283 267 225 233 224 241 255 257 266 273 197 190 191 193 205 197 266 233 205 195 243 146 139 160 147 141 124 151 162 156 147 150 169 187 182
302 315 308 303 302 309 313 314 305 297 270 259 212 223 232 219 247 255 254 245 197 190 191 188 185 196 225 255 206 256 180 147 175 162 158 210 149 226 155 162 167 165 173 181 189
315 299 311 312 312 313 315 316 314 307 276 253 222 212 239 240 219 262 179 169 184 187 191 202 221 250 232 308 129 185 160 162 186 164 155 170 239 208 165 166 175 180 179 182 186
316 303 308 317 318 318 318 311 305 312 290 248 262 187 226 219 223 217 181 190 183 171 203 186 196 233 183 189 187 211 187 191 145 173 133 166 249 131 165 178 179 181 177 177 180
329 325 320 317 314 316 315 321 314 299 291 231 249 192 217 203 204 209 209 187 164 160 170 182 184 200 189 188 197 183 230 194 153 187 163 188 138 126 163 189 186 170 175 177 183
333 332 327 327 325 326 332 352 358 345 328 239 294 237 84 203 191 193 186 175 174 164 167 192 188 199 192 207 223 196 206 195 186 177 167 200 190 165 166 206 187 178 168 180 175
337 334 332 331 325 329 351 37 52 332 303 299 260 251 259 171 165 183 171 161 186 186 183 163 215 200 209 210 233 243 217 225 26 141 145 212 219 167 164 191 181 177 167 171 180
343 339 337 339 327 342 347 355 347 352 279 290 232 238 241 190 190 180 175 181 181 186 198 184 164 202 203 220 219 229 242 185 143 149 282 304 236 183 174 171 172 170 170 173 179
348 344 336 339 342 338 313 335 344 334 291 250 185 234 246 215 226 187 183 165 183 196 191 224 212 192 206 220 199 211 228 356 129 123 187 184 240 200 170 178 175 198 196 187 184
345 340 335 341 323 343 314 310 319 285 287 152 154 167 219 217 139 177 192 210 179 172 183 196 188 198 209 199 187 230 129 124 146 163 107 223 60 242 176 186 191 192 190 184 187
336 332 324 329 319 304 286 310 310 212 256 307 127 178 180 218 247 156 181 215 194 189 197 165 112 180 193 189 167 140 106 79 95 113 252 191 162 254 180 197 199 173 177 169 172
334 329 319 301 278 301 313 317 266 222 212 343 353 276 196 193 227 171 180 197 183 173 181 139 168 86 97 160 172 162 152 122 46 91 213 156 196 224 129 70 157 169 160 162 170
337 341 337 297 266 274 256 259 256 329 39 301 30 303 264 179 208 208 176 183 226 173 164 167 180 158 196 185 172 184 180 150 169 170 207 334 225 210 68 31 122 146 151 155 160
346 359 337 6 340 216 170 233 286 1 354 333 304 326 248 194 177 209 190 186 199 196 156 180 198 153 166 215 152 208 215 161 108 2 133 184 245 208 104 79 117 132 148 156 161
357 346 347 344 360 200 215 263 283 311 336 304 320 133 306 182 193 200 188 198 192 212 236 154 120 177 120 72 268 198 155 204 231 157 204 236 186 197 199 184 166 159 157 163 161
7 353 352 344 330 135 289 303 326 323 322 239 294 257 242 267 272 193 200 180 197 199 232 227 122 169 131 216 175 153 204 199 137 164 170 157 250 171 194 189 181 166 163 162 159
3 350 329 351 329 19 323 312 309 298 313 283 296 254 270 288 291 232 211 208 183 186 210 221 141 163 192 47 214 196 190 195 193 207 187 166 236 56 2 164 163 161 164 162 165
345 321 318 12 39 341 315 309 299 298 303 238 223 219 271 203 281 284 222 230 186 188 197 193 216 113 151 184 189 207 212 206 232 137 200 189 239 25 58 123 157 156 156 161 165
0 353 351 24 31 332 324 314 331 325 303 289 292 280 272 308 220 292 308 235 244 198 199 185 190 185 193 194 122 190 194 211 207 230 177 210 171 174 160 153 155 158 157 162 166
15 23 11 324 321 318 306 274 301 337 343 326 312 322 283 264 261 258 253 262 174 263 202 184 208 215 199 194 175 188 193 198 194 218 201 216 207 214 183 174 169 158 160 165 168
19 346 335 289 293 284 295 358 311 308 276 281 288 287 289 271 276 278 333 265 182 207 304 220 257 217 220 202 195 192 201 200 207 221 218 218 224 258 146 148 161 170 170 171 171
336 331 292 275 258 301 297 331 306 304 298 288 300 287 283 289 268 264 269 267 243 174 195 210 144 105 227 193 98 8 192 199 208 223 208 214 197 136 159 168 173 173 179 177 174